K7YVO Weather Reports


time (UTC)temp
C
wind
direction
speed
KPH
gust
KPH
rain 1hr
cm
rain 24hr
cm
rain mn
cm
humidity
%
barometer
mb
20260505224358 16 205 1.6 4.8 0.00 0.00 0.00 75 1017.9
20260505223855 16 194 3.2 4.8 0.00 0.00 0.00 75 1018.1
20260505223352 16 206 1.6 3.2 0.00 0.00 0.00 73 1018.2
20260505222848 16 205 1.6 3.2 0.00 0.00 0.00 74 1018.0
20260505222344 16 206 0.0 3.2 0.00 0.00 0.00 73 1018.1
20260505221841 16 206 4.8 6.4 0.00 0.00 0.00 73 1018.2
20260505221338 16 208 0.0 1.6 0.00 0.00 0.00 73 1018.2
20260505220835 16 213 1.6 3.2 0.00 0.00 0.00 72 1018.1
20260505220332 16 203 1.6 3.2 0.00 0.00 0.00 73 1018.1
20260505215830 16 205 0.0 4.8 0.00 0.00 0.00 72 1018.1
20260505215328 16 205 1.6 3.2 0.00 0.00 0.00 71 1018.1
20260505214825 16 202 0.0 0.0 0.00 0.00 0.00 71 1018.4
20260505214323 16 200 0.0 1.6 0.00 0.00 0.00 73 1018.3
20260505213819 15 217 3.2 3.2 0.00 0.00 0.00 73 1018.5
20260505213318 16 218 1.6 3.2 0.00 0.00 0.00 73 1018.3
20260505212813 16 202 0.0 1.6 0.00 0.00 0.00 72 1018.3
20260505212311 16 216 1.6 3.2 0.00 0.00 0.00 73 1018.3
20260505211806 15 209 1.6 6.4 0.00 0.00 0.00 74 1018.3
20260505211304 15 208 1.6 3.2 0.00 0.00 0.00 74 1018.4
20260505210800 15 206 0.0 1.6 0.00 0.00 0.00 75 1018.5
20260505210258 15 225 1.6 3.2 0.00 0.00 0.00 76 1018.3
20260505205754 15 202 0.0 3.2 0.00 0.00 0.00 78 1018.6
20260505205253 15 206 1.6 1.6 0.00 0.00 0.00 79 1018.7
20260505204749 15 240 0.0 3.2 0.00 0.00 0.00 79 1018.5
20260505204247 15 234 0.0 1.6 0.00 0.00 0.00 78 1018.6
20260505203744 14 209 0.0 3.2 0.00 0.00 0.00 80 1018.5
20260505203241 15 227 1.6 4.8 0.00 0.00 0.00 79 1018.6
20260505202737 15 217 1.6 3.2 0.00 0.00 0.00 79 1018.6
20260505202233 15 204 1.6 1.6 0.00 0.00 0.00 78 1018.5
20260505201729 15 205 1.6 3.2 0.00 0.00 0.00 78 1018.7
20260505201228 15 200 0.0 1.6 0.00 0.00 0.00 78 1018.7
20260505200726 15 220 1.6 1.6 0.00 0.00 0.00 79 1018.8
20260505200222 15 268 1.6 3.2 0.00 0.00 0.00 80 1018.7
20260505195718 14 313 1.6 3.2 0.00 0.00 0.00 81 1018.8
20260505195215 15 202 0.0 1.6 0.00 0.00 0.00 80 1018.7
20260505194713 14 203 0.0 1.6 0.00 0.00 0.00 82 1018.9
20260505194209 14 235 1.6 4.8 0.00 0.00 0.00 83 1018.7
20260505193705 14 250 1.6 1.6 0.00 0.00 0.00 82 1018.7
20260505193202 13 207 0.0 1.6 0.00 0.00 0.00 83 1018.6
20260505192701 13 211 0.0 3.2 0.00 0.00 0.00 84 1018.9
20260505192158 13 212 0.0 1.6 0.00 0.00 0.00 86 1018.8
20260505191656 13 206 0.0 0.0 0.00 0.00 0.00 85 1018.7
20260505191154 13 209 1.6 4.8 0.00 0.00 0.00 86 1018.8
20260505190650 13 209 0.0 6.4 0.00 0.00 0.00 86 1018.8
20260505190150 13 203 3.2 4.8 0.00 0.00 0.00 86 1018.6
20260505185647 13 216 3.2 3.2 0.00 0.00 0.00 85 1018.8
20260505185143 13 199 0.0 1.6 0.00 0.00 0.00 84 1018.8
20260505184640 13 208 0.0 1.6 0.00 0.00 0.00 85 1018.6
20260505184137 13 203 0.0 1.6 0.00 0.00 0.00 86 1018.8
20260505183634 13 206 0.0 0.0 0.00 0.00 0.00 88 1018.7
20260505183132 12 224 1.6 1.6 0.00 0.00 0.00 89 1018.9
20260505182627 12 230 3.2 4.8 0.00 0.00 0.00 88 1018.9
20260505182124 12 219 0.0 0.0 0.00 0.00 0.00 89 1018.8
20260505181621 12 300 1.6 4.8 0.00 0.00 0.00 89 1018.8
20260505181118 12 209 0.0 0.0 0.00 0.00 0.00 91 1018.8
20260505180614 12 223 0.0 3.2 0.00 0.00 0.00 90 1018.8
20260505180112 12 205 0.0 3.2 0.00 0.00 0.00 90 1018.8
20260505175608 12 210 0.0 1.6 0.00 0.00 0.00 90 1018.7
20260505175104 12 210 0.0 0.0 0.00 0.00 0.00 92 1018.7
20260505174601 11 211 0.0 1.6 0.00 0.00 0.00 92 1018.8
20260505174057 12 221 1.6 4.8 0.00 0.00 0.00 91 1018.7
20260505173554 11 209 0.0 0.0 0.00 0.00 0.00 92 1018.7
20260505173051 12 202 0.0 1.6 0.00 0.00 0.00 91 1018.7
20260505172548 12 205 0.0 3.2 0.00 0.00 0.00 92 1018.7
20260505172045 12 199 0.0 1.6 0.00 0.00 0.00 92 1018.6
20260505171545 12 209 0.0 1.6 0.00 0.00 0.00 92 1018.5
20260505171042 12 197 0.0 1.6 0.00 0.00 0.00 92 1018.5
20260505170539 12 221 0.0 1.6 0.00 0.00 0.00 92 1018.5
20260505170035 11 205 0.0 0.0 0.00 0.00 0.00 93 1018.5
20260505165530 11 202 0.0 0.0 0.00 0.00 0.00 93 1018.4
20260505165026 11 202 0.0 0.0 0.00 0.00 0.00 95 1018.4
20260505164522 11 207 0.0 0.0 0.00 0.00 0.00 94 1018.5
20260505164021 11 205 0.0 0.0 0.00 0.00 0.00 94 1018.5
20260505163519 11 216 0.0 1.6 0.00 0.00 0.00 94 1018.4
20260505163015 11 208 0.0 1.6 0.00 0.00 0.00 94 1018.2
20260505162508 11 207 0.0 0.0 0.00 0.00 0.00 95 1018.3
20260505162006 11 200 0.0 1.6 0.00 0.00 0.00 95 1018.3
20260505161502 11 203 0.0 1.6 0.00 0.00 0.00 95 1018.3
20260505160959 11 210 0.0 3.2 0.00 0.00 0.00 96 1018.2
20260505160457 11 212 1.6 3.2 0.00 0.00 0.00 96 1018.2
20260505152934 10 209 1.6 3.2 0.00 0.00 0.00 98 1018.3
20260505152426 10 199 1.6 3.2 0.00 0.00 0.00 98 1018.2
20260505151926 10 206 0.0 1.6 0.00 0.00 0.00 98 1018.1
20260505151421 10 210 1.6 1.6 0.00 0.00 0.00 98 1018.1
20260505150919 10 208 0.0 1.6 0.00 0.00 0.00 98 1018.1
20260505150416 10 206 0.0 1.6 0.00 0.00 0.00 98 1018.0
20260505140341 10 203 0.0 0.0 0.00 0.00 0.00 98 1017.5
20260505130304 10 204 0.0 0.0 0.00 0.00 0.00 96 1017.2
20260505124754 11 202 0.0 3.2 0.00 0.00 0.00 94 1017.2
20260505124251 11 212 0.0 1.6 0.00 0.00 0.00 93 1017.2
20260505123747 11 203 0.0 1.6 0.00 0.00 0.00 92 1017.1
20260505123244 11 251 3.2 3.2 0.00 0.00 0.00 92 1017.1
20260505122740 11 201 0.0 0.0 0.00 0.00 0.00 91 1017.1
20260505122237 11 202 1.6 1.6 0.00 0.00 0.00 90 1017.2
20260505121734 11 210 0.0 0.0 0.00 0.00 0.00 90 1017.0
20260505121231 11 200 0.0 0.0 0.00 0.00 0.00 89 1017.0
20260505120727 11 206 0.0 1.6 0.00 0.00 0.00 89 1016.9
20260505120223 11 203 0.0 0.0 0.00 0.00 0.00 88 1016.9
20260505115722 11 208 0.0 0.0 0.00 0.00 0.00 89 1016.9
20260505115220 11 207 0.0 1.6 0.00 0.00 0.00 88 1017.0
20260505114717 11 187 0.0 0.0 0.00 0.00 0.00 89 1016.9
20260505114213 11 206 0.0 0.0 0.00 0.00 0.00 89 1016.9
20260505113710 11 200 0.0 0.0 0.00 0.00 0.00 88 1016.9
20260505113206 11 204 0.0 0.0 0.00 0.00 0.00 89 1016.9
20260505112703 11 194 0.0 0.0 0.00 0.00 0.00 89 1016.9
20260505112201 11 203 0.0 1.6 0.00 0.00 0.00 88 1017.0
20260505111700 11 204 0.0 0.0 0.00 0.00 0.00 88 1017.1
20260505111156 11 211 0.0 1.6 0.00 0.00 0.00 88 1016.9
20260505110652 11 202 0.0 0.0 0.00 0.00 0.00 88 1016.8
20260505110150 11 201 0.0 1.6 0.00 0.00 0.00 88 1016.6
20260505102125 11 203 0.0 1.6 0.00 0.00 0.00 88 1016.6
20260505101624 11 192 0.0 1.6 0.00 0.00 0.00 88 1016.5
20260505101120 11 204 0.0 0.0 0.00 0.00 0.00 88 1016.4
20260505100616 11 187 0.0 1.6 0.00 0.00 0.00 87 1016.7
20260505100113 11 205 0.0 1.6 0.00 0.00 0.00 88 1016.6
20260505095609 11 206 1.6 3.2 0.00 0.00 0.00 88 1016.6
20260505095106 11 211 1.6 3.2 0.00 0.00 0.00 87 1016.5
20260505094603 12 203 0.0 3.2 0.00 0.00 0.00 87 1016.4
20260505094059 12 201 0.0 1.6 0.00 0.00 0.00 86 1016.6
20260505093555 12 205 1.6 1.6 0.00 0.00 0.00 86 1016.5
20260505093053 12 208 0.0 3.2 0.00 0.00 0.00 86 1016.5
20260505092550 12 203 0.0 1.6 0.00 0.00 0.00 86 1016.3
20260505092048 12 204 0.0 3.2 0.00 0.00 0.00 86 1016.3
20260505091545 12 203 0.0 0.0 0.00 0.00 0.00 86 1016.4
20260505091043 12 206 0.0 1.6 0.00 0.00 0.00 87 1016.3
20260505090541 12 209 0.0 3.2 0.00 0.00 0.00 86 1016.3
20260505090038 12 203 0.0 6.4 0.00 0.00 0.00 86 1016.2
20260505085536 12 202 1.6 1.6 0.00 0.00 0.00 86 1016.2
20260505085034 12 218 3.2 3.2 0.00 0.00 0.00 86 1016.1
20260505084532 12 234 1.6 3.2 0.00 0.00 0.00 86 1016.2
20260505084030 12 189 1.6 3.2 0.00 0.00 0.00 86 1016.1
20260505083526 12 201 0.0 1.6 0.00 0.00 0.00 86 1016.2
20260505083023 12 204 0.0 1.6 0.00 0.00 0.00 85 1016.1
20260505082519 12 212 0.0 1.6 0.00 0.00 0.00 85 1016.0
20260505082016 12 203 0.0 3.2 0.00 0.00 0.00 85 1016.0
20260505081512 12 206 0.0 1.6 0.00 0.00 0.00 85 1015.9
20260505081009 13 195 1.6 1.6 0.00 0.00 0.00 85 1015.9
20260505080506 13 224 1.6 3.2 0.00 0.00 0.00 84 1015.9
20260505080002 13 197 0.0 3.2 0.00 0.00 0.00 84 1016.0
20260505075458 13 199 1.6 1.6 0.00 0.00 0.00 84 1016.1
20260505074955 13 199 1.6 4.8 0.00 0.00 0.00 84 1015.9
20260505074453 13 194 1.6 4.8 0.00 0.00 0.00 84 1016.0
20260505073950 13 211 0.0 4.8 0.00 0.00 0.00 84 1015.6
20260505073447 13 205 3.2 9.7 0.00 0.00 0.00 83 1015.6
20260505072944 13 200 3.2 6.4 0.00 0.00 0.00 83 1015.6
20260505072440 13 229 1.6 3.2 0.00 0.00 0.00 82 1015.4
20260505071937 13 218 3.2 4.8 0.00 0.00 0.00 82 1015.4
20260505071433 13 210 1.6 3.2 0.00 0.00 0.00 81 1015.4
20260505070931 14 204 0.0 1.6 0.00 0.00 0.00 80 1015.3
20260505070427 14 201 0.0 1.6 0.00 0.00 0.00 80 1015.2
20260505065923 14 202 0.0 1.6 0.00 0.00 0.00 79 1015.3
20260505065420 14 204 0.0 1.6 0.00 0.00 0.00 79 1015.2
20260505064916 14 212 1.6 4.8 0.00 0.00 0.00 78 1015.0
20260505064414 15 251 4.8 4.8 0.00 0.00 0.00 78 1015.1
20260505063912 15 183 0.0 4.8 0.00 0.00 0.00 77 1015.4
20260505063408 15 202 1.6 1.6 0.00 0.00 0.00 76 1015.0
20260505062904 15 203 1.6 3.2 0.00 0.00 0.00 76 1015.1
20260505062402 15 200 6.4 6.4 0.00 0.00 0.00 75 1014.8
20260505061858 15 209 3.2 4.8 0.00 0.00 0.00 74 1015.0
20260505061357 16 207 1.6 4.8 0.00 0.00 0.00 74 1015.0
20260505060854 16 217 0.0 1.6 0.00 0.00 0.00 74 1014.8
20260505060351 16 187 1.6 6.4 0.00 0.00 0.00 74 1014.8
20260505055847 16 191 4.8 4.8 0.00 0.00 0.00 74 1014.8
20260505055342 16 205 1.6 1.6 0.00 0.00 0.00 75 1014.8
20260505054840 16 203 0.0 3.2 0.00 0.00 0.00 74 1014.9
20260505054337 16 197 0.0 3.2 0.00 0.00 0.00 74 1014.6
20260505053835 16 176 3.2 4.8 0.00 0.00 0.00 75 1014.4
20260505053332 16 202 0.0 4.8 0.00 0.00 0.00 75 1014.6
20260505052829 16 191 1.6 4.8 0.00 0.00 0.00 75 1014.6
20260505052325 17 208 0.0 3.2 0.00 0.00 0.00 75 1014.6
20260505051823 17 200 0.0 1.6 0.00 0.00 0.00 75 1014.5
20260505051320 17 203 1.6 4.8 0.00 0.00 0.00 75 1014.6
20260505050818 17 194 3.2 6.4 0.00 0.00 0.00 75 1014.5
20260505050317 17 200 1.6 3.2 0.00 0.00 0.00 76 1014.6
20260505041746 18 200 0.0 1.6 0.00 0.00 0.00 74 1013.9
20260505041243 18 201 0.0 0.0 0.00 0.00 0.00 73 1013.8
20260505040740 18 201 0.0 0.0 0.00 0.00 0.00 73 1013.7
20260505040238 18 200 0.0 0.0 0.00 0.00 0.00 74 1013.6
20260505035735 18 201 0.0 0.0 0.00 0.00 0.00 74 1013.6
20260505035230 18 197 0.0 0.0 0.00 0.00 0.00 74 1013.4
20260505034727 18 193 0.0 0.0 0.00 0.00 0.00 74 1013.5
20260505034224 18 195 0.0 0.0 0.00 0.00 0.00 74 1013.5
20260505033721 18 195 0.0 0.0 0.00 0.00 0.00 73 1013.4
20260505033219 18 193 0.0 1.6 0.00 0.00 0.00 73 1013.4
20260505032717 18 199 0.0 0.0 0.00 0.00 0.00 72 1013.2
20260505032212 19 193 0.0 0.0 0.00 0.00 0.00 72 1013.3
20260505031710 19 217 0.0 0.0 0.00 0.00 0.00 71 1013.2
20260505031206 19 197 0.0 3.2 0.00 0.00 0.00 71 1013.1
20260505030703 19 201 0.0 1.6 0.00 0.00 0.00 70 1013.1
20260505030159 20 197 0.0 4.8 0.00 0.00 0.00 69 1013.1
20260505025655 20 200 0.0 1.6 0.00 0.00 0.00 68 1013.1
20260505025153 20 214 0.0 1.6 0.00 0.00 0.00 67 1013.0
20260505024651 21 203 0.0 1.6 0.00 0.00 0.00 65 1013.0
20260505024147 21 200 1.6 3.2 0.00 0.00 0.00 64 1012.9
20260505023645 21 206 1.6 3.2 0.00 0.00 0.00 63 1012.8
20260505023142 22 205 0.0 1.6 0.00 0.00 0.00 61 1012.9
20260505022640 22 208 1.6 1.6 0.00 0.00 0.00 60 1013.0
20260505022137 22 204 0.0 1.6 0.00 0.00 0.00 60 1012.9
20260505021633 22 200 1.6 3.2 0.00 0.00 0.00 60 1012.9
20260505021130 22 213 0.0 3.2 0.00 0.00 0.00 61 1012.8
20260505020626 22 206 0.0 3.2 0.00 0.00 0.00 60 1012.8
20260505020122 22 205 1.6 3.2 0.00 0.00 0.00 59 1013.0
20260505015619 22 210 1.6 4.8 0.00 0.00 0.00 59 1012.9
20260505015116 22 189 1.6 3.2 0.00 0.00 0.00 59 1012.8
20260505014612 22 209 0.0 3.2 0.00 0.00 0.00 60 1012.9
20260505014110 22 224 1.6 3.2 0.00 0.00 0.00 58 1013.0
20260505013607 22 219 1.6 1.6 0.00 0.00 0.00 57 1013.1
20260505013104 22 279 1.6 3.2 0.00 0.00 0.00 58 1013.0
20260505012602 22 205 1.6 6.4 0.00 0.00 0.00 58 1013.1
20260505012059 23 209 1.6 4.8 0.00 0.00 0.00 56 1013.2
20260505011554 23 139 3.2 9.7 0.00 0.00 0.00 57 1013.3
20260505011052 23 209 0.0 4.8 0.00 0.00 0.00 56 1013.1
20260505010547 22 198 0.0 1.6 0.00 0.00 0.00 57 1013.3
20260505010044 22 192 0.0 4.8 0.00 0.00 0.00 58 1013.0
20260505005540 23 267 3.2 4.8 0.00 0.00 0.00 57 1013.2
20260505005038 22 198 0.0 4.8 0.00 0.00 0.00 57 1013.1
20260505004535 23 239 1.6 6.4 0.00 0.00 0.00 57 1013.2
20260505004032 23 201 0.0 3.2 0.00 0.00 0.00 55 1013.1
20260505003529 23 220 1.6 4.8 0.00 0.00 0.00 55 1013.3
20260505003026 23 202 1.6 4.8 0.00 0.00 0.00 55 1013.5
20260505002521 25 221 3.2 4.8 0.00 0.00 0.00 52 1013.5
20260505002020 22 203 0.0 6.4 0.00 0.00 0.00 55 1013.3
20260505001517 23 192 6.4 6.4 0.00 0.00 0.00 55 1013.2
20260505001014 23 197 0.0 4.8 0.00 0.00 0.00 56 1013.4
20260505000512 23 206 1.6 3.2 0.00 0.00 0.00 57 1013.5
20260505000009 22 230 3.2 6.4 0.00 0.00 0.00 56 1013.4
20260504235506 22 251 1.6 3.2 0.00 0.00 0.00 56 1013.5
20260504235002 23 206 1.6 4.8 0.00 0.00 0.00 55 1013.2
20260504234459 23 276 6.4 9.7 0.00 0.00 0.00 54 1013.2
20260504233956 23 202 1.6 4.8 0.00 0.00 0.00 56 1013.4
20260504233451 22 267 4.8 4.8 0.00 0.00 0.00 57 1013.5
20260504232949 22 227 3.2 4.8 0.00 0.00 0.00 56 1013.5
20260504232446 22 189 3.2 4.8 0.00 0.00 0.00 57 1013.5
20260504231943 22 237 1.6 6.4 0.00 0.00 0.00 55 1013.6
20260504231439 22 195 1.6 6.4 0.00 0.00 0.00 56 1013.6
20260504230935 21 224 1.6 9.7 0.00 0.00 0.00 58 1013.7
20260504230432 21 219 6.4 11.3 0.00 0.00 0.00 58 1013.7
20260504225932 22 203 3.2 4.8 0.00 0.00 0.00 58 1013.9
20260504225428 22 211 0.0 6.4 0.00 0.00 0.00 56 1013.8
20260504224925 21 255 6.4 11.3 0.00 0.00 0.00 59 1013.7